sat.trackr.live / text

‹ back to catalog

STARLINK-5828

NORAD 57070 · 2023-088Y

PAYLOAD ACTIVE UNKNOWN

§ Identity

Operator
Country
US
Launch date
2023-06-22
Launch site
AFWTR
Launch vehicle
Mass (kg)
RCS (m²)

Purposes: comms

External: N2YO · Heavens-Above · Gunter

§ Orbital elements

Epoch: 2026-09-20T04:13:36.940800Z

Period
94.27 min
Inclination
43.0025°
Eccentricity
0.0001310
Mean motion
15.27576053 rev/d
Perigee alt
482.2 km
Apogee alt
484.0 km
Semi-major
6,861.2 km
B*
1.0031e-5
RAAN
77.8479°
Arg perigee
250.0441°
Mean anomaly
110.0269°
Rev number
18,024

§ Raw data

STARLINK-58281 57070U 23088Y   26263.17612200  .00000014  00000+0  10031-4 0  99912 57070  43.0025  77.8479 0001310 250.0441 110.0269 15.27576053180243

JSON: /api/v1/satellites/57070 · /tle

For live sub-satellite position, see the globe view (requires WebGL).

§ Visibility from observer

Set your observer location to see the next 7 days of passes ≥ 10°. The values pass through the URL so the page stays shareable.

No JS? Fill the form by hand. The geolocation button needs JavaScript.